Location: Alta
(39.2070°N, 120.8111°W)
Time: 00:12:02
(UTC+00:00)

ITAMSAT 1 - Pass Details

Date: 05 April 2023
Orbit: 782 x 797 km, 98.8° (Epoch: 29 May)

Event Time Altitude Azimuth Distance (km) Brightness Sun altitude
Exits shadow 04:47:24 - 203° (SSW) 3,051 10.6 -25.7°
Reaches altitude 10° 04:49:35 10° 216° (SW) 2,353 10.1 -26.0°
Maximum altitude 04:53:33 22° 266° (W) 1,681 9.8 -26.6°
Drops below altitude 10° 04:57:33 10° 316° (NW) 2,371 11.1 -27.3°
Sets 05:00:25 0° 331° (NNW) 3,307 11.9 -27.7°
